Weather History for Valparaiso, FL

Change the Weather History Date:

Thursday, January 17, 2013

  Actual Average Record
Temperature  
Mean Temperature 46 °F -  
Max Temperature 50 °F 59 °F 76 °F (1955)
Min Temperature 41 °F 34 °F 16 °F (1977)
Degree Days  
Heating Degree Days 20    
Moisture  
Dew Point 39 °F    
Average Humidity 82    
Maximum Humidity 100    
Minimum Humidity 61    
Precipitation  
Precipitation 0.01 in - - ()
Sea Level Pressure  
Sea Level Pressure 30.11 in    
Wind  
Wind Speed 11 mph (WNW)    
Max Wind Speed 22 mph    
Max Gust Speed 34 mph    
Visibility 8 miles    
Events Rain    
Averages and records for this station are not official NWS values.
T = Trace of Precipitation, MM = Missing Value Source: NWS Daily Summary

Daily Weather History Graph

Daily Weather History Graph

Search for Another Location

Airport:

Trip Planner

Search our weather history database for the weather conditions in past years. The results will help you decide how hot, cold, wet, or windy it might be!

Date:

Astronomy

Jan. 17, 2013 Rise Set
Actual Time 6:43 AM CST 5:09 PM CST
Civil Twilight 6:17 AM CST 5:35 PM CST
Nautical Twilight 5:48 AM CST 6:04 PM CST
Astronomical Twilight 5:19 AM CST 6:33 PM CST
Moon 10:20 AM CST (1/17) 11:27 PM CST (1/17)
Length of Visible Light 11h 18m
Length of Day
10h 26m
Waxing Crescent, 38% of the Moon is Illuminated
Jan 17
Waxing Crescent
Jan 18
First Quarter
Jan 26
Full
Feb 3
Last Quarter
Feb 10
New

Hourly Weather History & Observations

Time (CST) Temp. Windchill Dew Point Humidity Pressure Visibility Wind Dir Wind Speed Gust Speed Precip Events Conditions
12:25 AM 50.0 °F - 50.0 °F 100% 29.98 in 3.0 mi WNW 8.1 mph - N/A Rain Light Rain
12:46 AM 50.0 °F - 50.0 °F 100% 29.99 in 1.5 mi WNW 9.2 mph - N/A   Light Drizzle
12:55 AM 49.8 °F - 48.7 °F 96% 30.01 in 2.0 mi West 8.1 mph - 0.00 in   Overcast
1:30 AM 48.2 °F - 48.2 °F 100% 30.00 in 3.0 mi Variable 6.9 mph - N/A   Overcast
1:55 AM 48.7 °F - 47.7 °F 96% 30.01 in 3.0 mi WNW 6.9 mph - N/A   Overcast
2:55 AM 47.5 °F - 46.4 °F 96% 30.01 in 5.0 mi WNW 4.6 mph - N/A   Overcast
3:10 AM 46.4 °F 43.5 °F 46.4 °F 100% 30.00 in 5.0 mi Variable 5.8 mph - N/A   Overcast
3:41 AM 46.4 °F 42.4 °F 46.4 °F 100% 30.00 in 4.0 mi West 8.1 mph - N/A   Overcast
3:55 AM 46.8 °F - 45.3 °F 95% 30.01 in 2.0 mi West 4.6 mph - 0.00 in   Light Drizzle
4:11 AM 46.4 °F 44.3 °F 44.6 °F 93% 30.00 in 2.0 mi Variable 4.6 mph - N/A   Overcast
4:36 AM 46.4 °F 42.9 °F 44.6 °F 93% 30.01 in 2.0 mi Variable 6.9 mph - N/A   Light Drizzle
4:55 AM 46.0 °F 42.5 °F 44.6 °F 95% 30.03 in 2.0 mi West 6.9 mph - 0.01 in Rain Light Rain
5:29 AM 44.6 °F 40.2 °F 44.6 °F 100% 30.03 in 4.0 mi West 8.1 mph - N/A   Light Drizzle
5:47 AM 44.6 °F 41.4 °F 42.8 °F 93% 30.03 in 6.0 mi Variable 5.8 mph - N/A   Overcast
5:55 AM 44.8 °F 41.0 °F 42.4 °F 91% 30.05 in 7.0 mi Variable 6.9 mph - 0.00 in   Overcast
6:17 AM 42.8 °F 38.6 °F 41.0 °F 93% 30.05 in 7.0 mi West 6.9 mph 17.3 mph N/A   Overcast
6:24 AM 42.8 °F 38.6 °F 41.0 °F 93% 30.05 in 10.0 mi Variable 6.9 mph - N/A   Mostly Cloudy
6:46 AM 42.8 °F 36.2 °F 39.2 °F 87% 30.05 in 10.0 mi West 12.7 mph - N/A   Mostly Cloudy
6:55 AM 42.8 °F 36.6 °F 39.9 °F 90% 30.07 in 10.0 mi West 11.5 mph - N/A   Mostly Cloudy
7:26 AM 42.8 °F 35.4 °F 39.2 °F 87% 30.07 in 10.0 mi West 15.0 mph - N/A   Overcast
7:55 AM 41.7 °F 33.7 °F 37.8 °F 86% 30.10 in 10.0 mi West 16.1 mph - N/A   Overcast
8:01 AM 41.0 °F 32.8 °F 37.4 °F 87% 30.08 in 10.0 mi West 16.1 mph - N/A   Light Drizzle
8:20 AM 41.0 °F 32.5 °F 37.4 °F 87% 30.09 in 10.0 mi West 17.3 mph - N/A   Mostly Cloudy
8:55 AM 41.7 °F 32.9 °F 36.1 °F 81% 30.13 in 10.0 mi West 19.6 mph - 0.00 in   Mostly Cloudy
9:55 AM 41.5 °F 32.6 °F 35.4 °F 79% 30.14 in 10.0 mi West 19.6 mph - N/A   Mostly Cloudy
10:55 AM 41.7 °F 32.3 °F 33.1 °F 71% 30.14 in 10.0 mi WNW 21.9 mph 29.9 mph N/A   Mostly Cloudy
11:55 AM 41.7 °F 32.3 °F 31.8 °F 68% 30.14 in 10.0 mi WNW 21.9 mph 31.1 mph N/A   Mostly Cloudy
12:55 PM 43.5 °F 35.0 °F 30.9 °F 61% 30.11 in 10.0 mi NW 20.7 mph 32.2 mph N/A   Mostly Cloudy
1:55 PM 43.9 °F 35.7 °F 32.2 °F 63% 30.13 in 10.0 mi WNW 19.6 mph 26.5 mph N/A   Mostly Cloudy
2:55 PM 45.0 °F 37.6 °F 32.9 °F 63% 30.14 in 10.0 mi NW 17.3 mph - N/A   Mostly Cloudy
3:56 PM 45.1 °F 37.9 °F 33.6 °F 64% 30.17 in 10.0 mi NW 17.3 mph 34.5 mph N/A   Mostly Cloudy
4:15 PM 46.4 °F 40.1 °F 33.8 °F 62% 30.16 in 10.0 mi NW 15.0 mph 28.8 mph N/A   Mostly Cloudy
4:55 PM 44.8 °F 37.4 °F 34.5 °F 67% 30.19 in 10.0 mi NW 17.3 mph 26.5 mph N/A   Mostly Cloudy
5:04 PM 44.6 °F 37.2 °F 35.6 °F 71% 30.18 in 10.0 mi NW 17.3 mph 25.3 mph N/A   Mostly Cloudy
5:15 PM 44.6 °F 36.6 °F 35.6 °F 71% 30.18 in 10.0 mi NW 19.6 mph 29.9 mph N/A   Scattered Clouds
5:57 PM 43.5 °F 36.7 °F 34.7 °F 71% 30.23 in 10.0 mi NW 13.8 mph 20.7 mph N/A   Partly Cloudy
6:55 PM 43.2 °F 35.9 °F 34.5 °F 72% 30.26 in 10.0 mi NW 15.0 mph 20.7 mph N/A   Partly Cloudy
7:57 PM 43.2 °F 35.6 °F 32.7 °F 67% 30.27 in 10.0 mi NNW 16.1 mph 20.7 mph N/A   Clear
8:57 PM 42.6 °F 34.3 °F 32.7 °F 68% 30.28 in 10.0 mi NNW 18.4 mph 24.2 mph N/A   Clear
9:56 PM 42.6 °F 34.6 °F 33.4 °F 70% 30.27 in 10.0 mi NNW 17.3 mph - N/A   Clear
9:57 PM 42.8 °F 35.4 °F 33.6 °F 70% 30.27 in 10.0 mi NNW 15.0 mph 25.3 mph N/A   Clear
10:57 PM 42.8 °F 35.4 °F 33.6 °F 70% 30.27 in 10.0 mi NNW 15.0 mph 25.3 mph N/A   Clear
11:56 PM 42.4 °F 35.3 °F 33.4 °F 70% 30.27 in 10.0 mi North 13.8 mph 19.6 mph N/A   Clear